Location: Gleizolles
(44.4833°N, 6.7667°E)
Time: 00:33:10
(UTC+00:00)

A-11 Canister half - All Passes

Search period start: 16 June 2024 00:00
Search period end: 26 June 2024 00:00
Orbit: 1515 x 1685 km, 47.2° (Epoch: 15 June)

Date Brightness Start Highest point End Pass type
(mag) Time Alt. Az. Time Alt. Az. Time Alt. Az.
16 Jun - 01:57:02 10° WNW 02:05:30 37° SW 02:13:45 10° SSE visible
16 Jun - 17:15:00 10° SSW 17:23:35 33° SE 17:32:00 10° ENE daylight
16 Jun - 19:17:36 10° WSW 19:27:41 77° SSE 19:37:26 10° ENE daylight
16 Jun - 21:22:58 10° W 21:32:58 76° N 21:42:37 10° E visible
16 Jun - 23:28:32 10° WNW 23:38:23 86° SSW 23:47:50 10° ESE visible
17 Jun - 01:33:57 10° WNW 01:42:36 40° SW 01:51:00 10° SSE visible
17 Jun - 16:52:15 10° S 17:00:39 31° SE 17:08:55 10° ENE daylight
17 Jun - 18:54:36 10° SW 19:04:40 75° SSE 19:14:27 10° ENE daylight
17 Jun - 20:59:54 10° W 21:09:56 77° N 21:19:37 10° E visible
17 Jun - 23:05:30 10° WNW 23:15:22 88° SSW 23:24:52 10° ESE visible
18 Jun - 01:10:53 10° WNW 01:19:41 42° SW 01:28:14 10° SSE visible
18 Jun - 16:29:33 10° S 16:37:44 29° SE 16:45:48 10° ENE daylight
18 Jun - 18:31:38 10° SW 18:41:41 72° SSE 18:51:27 10° ENE daylight
18 Jun - 20:36:49 10° W 20:46:54 77° N 20:56:36 10° E visible
18 Jun - 22:42:27 10° WNW 22:52:23 90° NNE 23:01:54 10° ESE visible
19 Jun - 00:47:49 10° WNW 00:56:46 44° SW 01:05:27 10° SSE visible
19 Jun - 02:57:22 10° WSW 02:59:37 11° WSW 03:01:52 10° SW visible
19 Jun - 16:06:51 10° S 16:14:49 27° SE 16:22:40 10° ENE daylight
19 Jun - 18:08:39 10° SW 18:18:41 70° SSE 18:28:28 10° ENE daylight
19 Jun - 20:13:46 10° W 20:23:51 78° N 20:33:37 10° E visible
19 Jun - 22:19:24 10° WNW 22:29:23 88° NNE 22:38:55 10° ESE visible
20 Jun - 00:24:45 10° WNW 00:33:51 47° SW 00:42:39 10° SSE visible
20 Jun - 02:33:21 10° W 02:36:47 12° WSW 02:40:11 10° SW visible
20 Jun - 15:44:12 10° S 15:51:55 25° SE 15:59:32 10° E daylight
20 Jun - 17:45:40 10° SW 17:55:41 67° SSE 18:05:28 10° ENE daylight
20 Jun - 19:50:42 10° W 20:00:49 79° N 20:10:36 10° E visible
20 Jun - 21:56:22 10° WNW 22:06:22 86° NNE 22:15:57 10° ESE visible
21 Jun - 00:01:42 10° WNW 00:10:56 50° SW 00:19:50 10° SSE visible
21 Jun - 02:09:40 10° W 02:13:56 14° WSW 02:18:09 10° SSW visible
21 Jun - 15:21:34 10° S 15:29:00 24° SE 15:36:21 10° E daylight
21 Jun - 17:22:43 10° SW 17:32:42 65° SSE 17:42:28 10° ENE daylight
21 Jun - 19:27:37 10° W 19:37:46 79° N 19:47:35 10° ENE daylight
21 Jun - 21:33:19 10° WNW 21:43:20 84° NNE 21:52:58 10° ESE visible
21 Jun - 23:38:38 10° WNW 23:48:00 52° SW 23:57:00 10° SE visible
22 Jun - 01:46:10 10° W 01:51:05 15° WSW 01:55:58 10° SSW visible
22 Jun - 14:58:59 10° S 15:06:06 22° SE 15:13:10 10° E daylight
22 Jun - 16:59:46 10° SW 17:09:43 62° SSE 17:19:28 10° ENE daylight
22 Jun - 19:04:33 10° W 19:14:44 80° N 19:24:35 10° ENE daylight
22 Jun - 21:10:15 10° WNW 21:20:18 83° NNE 21:29:59 10° ESE visible
22 Jun - 23:15:36 10° WNW 23:25:03 55° SW 23:34:09 10° SE visible
23 Jun - 01:22:44 10° W 01:28:15 17° SW 01:33:39 10° SSW visible
23 Jun - 14:36:26 10° S 14:43:12 20° SE 14:49:55 10° E daylight
23 Jun - 16:36:50 10° SW 16:46:44 60° SE 16:56:27 10° ENE daylight
23 Jun - 18:41:30 10° W 18:51:41 82° NNW 19:01:35 10° ENE daylight
23 Jun - 20:47:12 10° WNW 20:57:17 82° NNE 21:06:59 10° E visible
23 Jun - 22:52:33 10° WNW 23:02:06 58° SW 23:11:18 10° SE visible
24 Jun - 00:59:24 10° W 01:05:23 18° SW 01:11:16 10° SSW visible
24 Jun - 14:13:56 10° SSE 14:20:19 19° SE 14:26:39 10° E daylight
24 Jun - 16:13:55 10° SW 16:23:45 57° SE 16:33:26 10° ENE daylight
24 Jun - 18:18:26 10° WSW 18:28:38 83° NNW 18:38:35 10° ENE daylight
24 Jun - 20:24:08 10° WNW 20:34:15 81° N 20:43:58 10° E visible
24 Jun - 22:29:30 10° WNW 22:39:09 61° SW 22:48:26 10° SE visible
25 Jun - 00:36:06 10° W 00:42:31 20° SW 00:48:48 10° S visible
25 Jun - 13:51:30 10° SSE 13:57:26 17° SE 14:03:19 10° E daylight
25 Jun - 15:51:01 10° SW 16:00:46 54° SE 16:10:25 10° ENE daylight
25 Jun - 17:55:23 10° WSW 18:05:36 84° NNW 18:15:34 10° ENE daylight
25 Jun - 20:01:05 10° WNW 20:11:13 80° N 20:20:59 10° E visible
25 Jun - 22:06:28 10° WNW 22:16:12 63° SSW 22:25:33 10° SE visible
